P/2015 D5 ( Kowalski )

Japanese version
Home page
Updated on August 9, 2016

---------------------------------------------------------------------

* Profile

Discovery Date February 27, 2015
Magnitude 18.8 mag
Discoverer R. A. Kowalski (Mount Lemmon)

* Pictures

* Orbital Elements

Epoch 2014 Apr. 13.0 TT = JDT 2456760.5
T 2014 Apr. 19.40300 TT                                 MPCW
q   4.5792103            (2000.0)            P               Q
n   0.03516399     Peri.   40.06371     -0.38399303     -0.85917097
a   9.2272138      Node    74.98245     +0.73187392     -0.50652981
e   0.5037277      Incl.   20.49662     +0.56294752     +0.07247619
P  28.0
From 105 observations 2015 Feb. 27-June 12, mean residual 0".4.

* Magnitudes Graph

        m1 = 9.0 + 5 log d + 10.0 log r

---------------------------------------------------------------------

The orbital elements are published on M.P.E.C. 2015-W63.
The magnitudes graphs are made with Comet for Windows.

---------------------------------------------------------------------

Copyright(C) Seiichi Yoshida (comet@aerith.net). All rights reserved.